Annapolis Naval Academy, MD

4:24 PM EDT on March 24, 2017 (GMT -0400)
Annapolis Naval Academy

Weather History for KNAK - November, 2011

Change the Weather History Date:

Monday, November 7, 2011

  Actual Average (KBWI) Record (KBWI)
Temperature  
Mean Temperature 50 °F -  
Max Temperature 57 °F 57 °F 77 °F (1975)
Min Temperature 42 °F 37 °F 22 °F (1962)
Degree Days  
Heating Degree Days 16    
Moisture  
Dew Point 45 °F    
Average Humidity 87    
Maximum Humidity 93    
Minimum Humidity 69    
Precipitation  
Precipitation 0.00 in - - ()
Sea Level Pressure  
Sea Level Pressure 30.36 in    
Wind  
Wind Speed 1 mph (SE)    
Max Wind Speed 10 mph    
Max Gust Speed -    
Visibility 7 miles    
Events      
Averages and records for this station are not official NWS values.
T = Trace of Precipitation, MM = Missing Value Source: NWS Daily Summary

Daily Weather History Graph

Daily Weather History Graph

Search for Another Location

Airport or City:

Trip Planner

Search our weather history database for the weather conditions in past years. The results will help you decide how hot, cold, wet, or windy it might be!

Date:

Astronomy

Nov. 07, 2011 Rise Set
Actual Time 6:39 AM EST 4:59 PM EST
Civil Twilight 6:11 AM EST 5:27 PM EST
Nautical Twilight 5:39 AM EST 5:58 PM EST
Astronomical Twilight 5:08 AM EST 6:30 PM EST
Moon 3:08 PM EST (11/7) 3:41 AM EST (11/7)
Length of Visible Light 11h 15m
Length of Day
10h 19m
Waxing Gibbous, 91% of the Moon is Illuminated
Nov 7
Waxing Gibbous
Nov 10
Full
Nov 18
Last Quarter
Nov 25
New
Dec 2
First Quarter

Hourly Weather History & Observations

Time (EST) Temp. Dew Point Humidity Pressure Visibility Wind Dir Wind Speed Gust Speed Precip Events Conditions
12:54 AM 46.0 °F 43.0 °F 89% 30.40 in 8.0 mi Calm Calm - N/A   Clear
1:54 AM 45.0 °F 42.1 °F 90% 30.39 in 5.0 mi Calm Calm - N/A   Clear
2:54 AM 45.0 °F 43.0 °F 93% 30.38 in 6.0 mi Calm Calm - N/A   Clear
3:54 AM 45.0 °F 43.0 °F 93% 30.38 in 5.0 mi Calm Calm - N/A   Clear
4:54 AM 44.1 °F 41.0 °F 89% 30.39 in 6.0 mi Calm Calm - N/A   Clear
5:54 AM 43.0 °F 41.0 °F 93% 30.40 in 6.0 mi Calm Calm - N/A   Clear
6:42 AM 42.8 °F 39.2 °F 87% 30.39 in 5.0 mi Calm Calm - N/A   Scattered Clouds
6:54 AM 43.0 °F 39.9 °F 89% 30.39 in 7.0 mi Calm Calm - N/A   Mostly Cloudy
7:19 AM 42.8 °F 41.0 °F 93% 30.39 in 2.5 mi Calm Calm - N/A   Mostly Cloudy
7:27 AM 42.8 °F 41.0 °F 93% 30.39 in 1.0 mi Calm Calm - N/A   Mist
7:36 AM 44.6 °F 42.8 °F 93% 30.39 in 2.5 mi Calm Calm - N/A   Scattered Clouds
7:43 AM 44.6 °F 42.8 °F 93% 30.40 in 6.0 mi Calm Calm - N/A   Scattered Clouds
7:54 AM 46.0 °F 44.1 °F 93% 30.41 in 7.0 mi Calm Calm - N/A   Clear
8:54 AM 50.0 °F 46.0 °F 86% 30.41 in 9.0 mi Calm Calm - N/A   Clear
9:16 AM 51.8 °F 46.4 °F 82% 30.40 in 1.8 mi SW 4.6 mph - N/A   Haze
9:23 AM 51.8 °F 46.4 °F 82% 30.40 in 3.0 mi North 3.5 mph - N/A   Haze
9:54 AM 52.0 °F 46.9 °F 83% 30.40 in 9.0 mi Calm Calm - N/A   Clear
10:54 AM 57.0 °F 46.9 °F 69% 30.40 in 10.0 mi ENE 3.5 mph - N/A   Clear
11:54 AM 54.0 °F 48.9 °F 83% 30.38 in 10.0 mi SE 10.4 mph - N/A   Clear
12:54 PM 57.0 °F 50.0 °F 77% 30.34 in 10.0 mi SE 9.2 mph - N/A   Clear
1:54 PM 57.0 °F 51.1 °F 81% 30.33 in 10.0 mi SE 10.4 mph - N/A   Clear
2:54 PM 57.0 °F 51.1 °F 81% 30.31 in 10.0 mi ESE 10.4 mph - N/A   Clear
3:54 PM 57.0 °F 51.1 °F 81% 30.30 in 10.0 mi SE 8.1 mph - N/A   Clear
4:54 PM 55.9 °F 48.9 °F 77% 30.30 in 10.0 mi South 4.6 mph - N/A   Clear
5:54 PM 54.0 °F 48.9 °F 83% 30.31 in 10.0 mi Calm Calm - N/A   Clear
6:54 PM 52.0 °F 48.0 °F 86% 30.32 in 9.0 mi Calm Calm - N/A   Clear
7:54 PM 50.0 °F 46.9 °F 89% 30.32 in 6.0 mi Calm Calm - N/A   Clear
8:54 PM 50.0 °F 46.9 °F 89% 30.32 in 5.0 mi Calm Calm - N/A   Clear
9:54 PM 48.0 °F 45.0 °F 89% 30.32 in 4.0 mi Calm Calm - N/A   Clear
10:54 PM 46.9 °F 45.0 °F 93% 30.31 in 5.0 mi Calm Calm - N/A   Clear
11:54 PM 46.9 °F 44.1 °F 90% 30.31 in 5.0 mi Calm Calm - N/A   Clear